RROCI-2

operational
NORAD ID: 59106 Int'l Des: 2024-043 Owner: SFSSC/ORISS Country: US
LEOCIRCULARRETROGRADESSO

About RROCI-2

Description loading...

Live Position

Loading 3D Globe...

Upcoming Passes

Altitude History

Altitude vs Time

uPlot chart will show altitude changes over time

Two-Line Element Set

1 59106U 24043J 26061.62910761 .00004029 00000-0 33466-3 0 9991
2 59106 97.8262 193.6880 0006122 357.0217 3.0969 14.99317610108791
Epoch: Mar 2, 2026 • Age: 26 hours

Current Status

Altitude 597.1 km
Velocity 7.56 km/s
Sub-Earth Point -78.03°S, 145.1°E
Launch Date Mar 4, 2024
Age 1.9 years
Type other

Technical Details

Classification Payload
Mass 19.00 kg
Dry Mass 19.00 kg
Total Mass 19.00 kg
Length 0.30 m
Diameter 0.20 m
Span 1.00 m
Shape Box+2 pan
Manufacturer ORISS
Bus Type Cubesat 12U
Phase Status In Orbit
Owner/State SFSSC/ORISS/US

Large Constellations

Loading constellations...